Theta_e
293 292 290 289 288 288 288 288 288 288 288 289 292 298 301 303 304 306 305 306 306 306 306 306 305 303 299 301 300 300 298 298 298 299 299 298 298 298 297 297 296 295 295
290 288 289 288 288 288 288 287 287 287 287 288 288 290 294 298 301 304 304 304 305 305 306 306 306 304 300 301 302 300 298 298 298 298 298 298 298 297 298 297 296 295 295
287 287 288 288 288 288 288 287 287 287 286 287 287 288 289 291 295 299 302 303 304 304 305 304 305 305 304 303 302 301 299 300 300 298 298 297 297 297 297 297 295 294 294
287 287 287 287 287 288 288 288 287 286 286 286 286 287 287 288 290 294 298 301 302 303 303 303 303 303 303 303 302 301 302 302 300 298 297 297 296 296 296 296 295 294 294
287 287 287 288 287 287 287 288 287 287 286 286 286 286 287 287 287 288 291 296 300 302 302 302 302 302 302 302 301 300 299 301 300 298 297 297 296 296 296 295 295 294 294
286 286 286 287 287 287 287 287 288 287 287 286 286 286 286 286 287 287 288 289 294 298 301 302 301 301 300 302 301 299 299 300 300 300 297 297 296 295 294 294 294 293 293
285 285 285 286 287 287 286 287 287 287 287 287 286 286 286 286 286 286 287 287 288 292 297 300 301 301 300 300 300 300 300 299 301 300 296 295 295 293 292 293 294 294 293
285 285 285 285 285 286 287 286 286 286 287 286 286 286 286 286 286 286 286 286 287 288 292 298 300 300 299 299 298 298 299 299 299 299 296 294 294 293 292 293 294 293 292
284 284 285 285 285 285 285 286 286 286 286 286 286 286 286 286 286 286 286 286 286 286 287 292 296 299 299 298 297 297 297 298 298 297 295 294 293 292 292 292 293 292 292
284 284 284 284 284 284 284 284 285 286 286 286 286 286 286 286 286 286 286 286 286 286 286 288 293 296 298 298 297 297 296 297 297 296 295 294 292 291 291 292 292 292 292
281 282 282 283 283 283 284 284 284 284 285 286 286 286 286 286 286 286 286 286 286 286 285 286 290 294 295 297 298 296 296 295 296 296 296 294 292 291 291 291 291 291 291
278 279 280 281 281 281 282 283 283 283 284 285 286 286 285 286 286 286 286 286 285 285 285 285 286 291 293 295 297 296 295 294 295 295 296 295 291 290 290 291 291 291 290
277 277 278 279 279 280 280 281 282 282 283 284 285 286 286 285 285 286 286 286 286 286 285 285 285 287 291 294 295 295 295 293 293 295 296 295 292 290 290 290 290 290 290
275 276 277 277 278 278 278 279 280 280 281 282 283 284 286 286 285 285 286 286 286 286 286 285 285 285 288 292 294 294 295 293 293 293 293 294 292 290 289 290 290 290 290
273 274 274 275 275 276 277 277 278 279 279 279 281 282 283 285 286 285 285 285 285 286 286 285 285 285 285 291 292 293 293 293 292 292 293 294 294 290 290 290 290 289 289
271 272 272 272 273 274 274 275 275 276 278 278 279 279 282 283 285 285 284 284 285 285 286 286 285 285 284 285 291 292 292 292 292 292 291 293 293 290 289 289 289 289 289
270 269 269 269 269 270 271 272 274 275 275 276 278 279 279 281 282 284 284 284 284 284 285 286 286 285 285 284 284 290 291 291 291 291 291 291 292 291 289 289 289 288 289
269 269 268 267 267 268 268 269 269 271 273 276 276 276 278 279 281 283 284 284 284 284 285 285 286 286 285 284 284 284 288 290 290 291 291 291 291 292 289 289 289 288 289
270 269 268 267 267 266 267 267 267 268 269 271 273 275 276 277 279 282 283 284 284 284 284 285 285 285 285 284 284 283 284 286 289 290 290 291 290 291 292 288 288 288 288
271 270 269 268 267 267 266 266 267 267 268 269 270 272 274 275 277 280 282 283 283 283 284 284 285 285 285 285 284 283 284 284 284 288 290 290 291 290 291 291 288 288 288
271 270 269 269 268 267 267 266 266 266 267 267 269 269 271 272 275 276 280 282 281 282 283 284 284 285 285 285 284 284 283 284 285 284 289 289 291 291 291 291 289 288 287
271 271 270 269 269 269 268 267 266 266 267 267 267 268 269 270 271 274 276 278 280 281 282 283 284 285 285 285 285 284 284 283 284 285 285 289 290 291 290 290 290 287 287
271 271 271 270 270 269 268 267 266 266 266 267 267 267 268 269 270 272 274 276 277 278 279 280 282 284 285 285 285 284 284 284 284 285 285 288 289 290 290 290 291 288 288
271 271 271 271 270 270 269 268 267 266 266 266 267 267 268 268 269 271 272 274 275 276 278 279 280 282 284 284 284 284 284 284 283 284 286 287 288 289 290 290 290 290 287
270 270 271 271 270 270 270 269 268 267 266 265 266 267 268 268 268 269 271 273 274 275 277 279 280 281 282 283 284 284 284 283 283 283 286 287 288 288 289 290 290 290 287
270 270 270 270 271 270 270 269 269 268 267 266 266 266 267 268 268 269 270 272 274 275 276 278 280 280 281 282 283 283 283 283 283 283 285 287 288 288 288 289 290 291 287
Wind_Speed
19 17 15 16 17 17 17 18 18 16 14 13 10 4 3 9 8 7 8 9 9 9 9 9 11 13 13 11 10 8 8 10 12 13 14 12 12 11 10 9 9 8 7
10 11 12 12 13 14 16 17 17 17 16 14 13 11 7 8 8 8 10 10 12 11 9 9 10 13 13 13 12 8 8 9 10 12 14 14 14 14 11 9 9 9 8
13 13 13 12 12 13 14 15 16 17 17 16 15 13 12 10 8 8 10 10 11 11 12 12 11 12 13 15 13 11 12 11 12 10 13 14 14 14 13 10 11 10 8
14 15 17 17 15 14 14 14 15 15 15 17 17 16 14 12 10 8 9 10 11 12 13 14 14 13 11 13 13 13 13 13 11 11 12 14 14 13 13 13 12 11 10
14 16 18 19 19 16 14 14 13 13 14 15 15 16 15 14 12 10 9 9 10 11 13 13 14 13 13 13 12 10 11 12 10 10 12 13 13 13 14 12 13 13 13
14 16 17 18 18 18 17 15 14 12 11 13 13 14 14 13 14 12 10 8 10 12 12 13 13 13 14 14 15 11 12 12 12 11 11 10 11 11 12 12 13 16 13
12 14 16 18 19 19 17 16 15 14 12 10 12 12 13 14 13 13 13 11 9 10 12 13 13 13 14 15 13 12 14 13 12 11 11 9 9 8 9 11 13 14 14
16 15 15 16 17 18 18 17 17 16 16 12 10 12 12 12 13 13 12 13 13 10 10 12 12 13 13 14 14 13 12 11 12 11 9 8 8 8 7 8 10 11 11
19 17 17 18 18 19 20 18 17 16 17 18 14 11 11 12 12 13 13 13 13 12 10 8 11 13 12 14 14 13 12 11 10 10 9 8 8 8 7 6 11 11 10
23 22 20 20 20 21 21 21 20 19 17 20 20 15 12 11 12 12 13 13 13 12 11 8 8 10 13 14 14 14 13 10 9 8 8 7 6 6 6 5 7 8 7
23 25 25 25 25 24 26 24 23 22 20 18 22 21 16 13 11 12 12 13 13 12 12 10 8 7 12 14 13 13 13 10 10 8 7 7 5 6 7 6 7 7 7
27 27 28 28 29 29 29 28 26 25 25 22 20 24 22 17 15 12 12 13 13 13 13 12 10 6 9 11 13 13 14 13 11 10 9 7 6 5 6 8 9 8 8
29 30 28 29 29 28 29 28 28 26 25 26 25 23 23 21 19 16 13 13 13 14 13 13 11 8 8 9 10 13 15 13 12 11 9 7 6 7 7 8 9 9 8
31 31 31 30 31 30 28 28 28 27 26 26 28 27 25 24 22 20 17 15 14 15 14 12 11 10 8 9 9 12 14 12 10 9 9 9 8 8 8 9 10 10 9
29 31 32 33 33 33 32 30 29 27 26 25 26 27 28 28 22 22 22 19 16 15 15 13 11 9 9 9 9 10 12 12 12 11 11 11 9 9 10 10 11 11 10
29 29 29 30 31 32 34 35 30 30 29 29 27 27 29 30 27 23 23 23 21 18 16 14 12 10 9 7 10 9 9 11 12 12 11 11 9 8 10 11 11 10 9
25 27 28 28 29 29 30 31 35 32 30 31 30 29 29 28 28 27 23 25 24 23 21 16 14 10 9 9 7 11 10 8 9 12 13 12 10 9 10 11 11 10 10
23 23 24 24 24 25 26 27 28 30 33 31 28 28 29 30 29 27 25 24 29 28 25 20 16 13 11 10 9 8 11 10 10 10 13 13 12 11 11 11 11 11 11
25 23 22 22 22 22 23 24 25 26 28 31 31 29 26 30 32 31 30 31 30 34 30 24 19 16 14 11 10 10 9 11 11 11 11 14 14 14 12 12 12 12 12
27 26 24 23 23 23 23 23 24 24 25 27 28 28 27 25 29 35 32 32 32 32 31 28 24 21 18 14 12 13 13 13 12 13 12 13 14 15 15 14 14 14 13
29 28 26 25 24 23 23 23 23 24 25 26 25 25 24 23 26 29 38 35 34 31 31 30 28 26 22 19 16 16 16 15 14 13 14 13 14 16 16 15 15 15 14
28 28 28 27 26 25 23 23 24 25 25 25 24 23 22 25 29 31 32 37 40 36 33 30 30 29 27 24 21 19 19 18 17 16 16 15 14 15 16 17 17 17 17
25 27 28 28 28 28 27 26 25 25 25 24 23 22 21 24 28 30 34 34 34 35 35 36 34 32 30 28 25 24 23 20 17 18 16 16 15 15 17 18 19 20 21
23 25 26 28 29 29 29 28 25 24 24 24 23 22 21 22 25 28 31 34 34 34 32 32 34 35 34 33 30 28 27 23 19 18 17 15 14 15 16 18 20 21 21
22 23 25 26 28 29 30 30 28 25 22 23 24 22 20 20 22 24 27 29 31 32 32 32 33 34 36 36 35 33 31 28 22 20 18 17 15 15 16 18 21 23 24
22 23 23 25 26 28 29 31 31 28 25 21 20 22 24 21 20 21 22 24 28 30 31 32 32 32 32 35 36 36 33 31 25 22 20 19 18 17 18 19 21 24 26
Wind_Direction
343 338 337 344 352 355 359 2 7 11 11 6 4 340 314 295 284 269 257 242 241 245 248 249 239 227 227 229 235 254 273 274 269 273 279 287 285 285 281 260 242 233 236
310 315 320 328 337 346 354 358 1 1 3 6 7 359 339 294 294 284 265 242 237 239 249 261 258 235 230 237 250 246 261 273 280 284 282 279 280 284 282 263 241 231 235
333 329 320 318 320 326 338 350 354 359 3 4 2 2 0 350 327 287 271 260 250 240 243 246 253 254 247 240 237 239 258 270 277 283 282 279 279 278 278 267 238 227 229
330 328 330 328 322 317 319 331 345 353 357 2 6 6 2 0 349 327 287 267 254 247 241 239 239 244 252 250 244 247 258 269 272 279 279 279 278 276 273 261 242 232 225
333 330 325 326 326 318 313 309 323 338 345 352 356 360 2 359 356 345 324 298 275 260 254 246 241 242 243 248 241 249 257 267 277 282 280 282 278 274 271 269 244 233 232
350 343 335 325 322 325 314 308 300 310 327 338 344 350 355 359 358 355 345 323 295 272 255 253 252 245 237 243 242 240 258 266 276 285 291 287 287 280 269 260 245 235 241
334 335 334 332 329 327 323 309 295 283 293 313 324 333 341 348 351 357 357 348 329 297 272 256 252 252 244 235 241 244 254 263 280 281 290 288 283 289 275 252 238 232 236
317 319 320 320 321 322 323 318 306 285 274 280 295 308 318 330 337 341 348 357 353 334 302 269 259 253 248 240 240 241 251 264 277 279 286 277 277 273 273 251 218 216 229
301 304 308 309 309 310 312 315 313 304 278 265 270 283 298 312 321 327 332 341 349 353 333 288 260 257 256 248 240 243 248 261 269 277 284 277 278 272 256 233 207 205 222
288 293 297 300 300 301 302 303 305 304 296 267 260 264 275 293 307 318 323 326 334 345 347 322 273 260 264 257 248 239 241 257 265 276 292 284 285 264 251 206 199 207 219
286 287 288 291 293 294 294 295 294 292 291 286 261 257 260 272 288 301 312 319 322 329 339 350 296 257 264 259 254 243 243 243 255 263 286 294 269 246 235 206 198 205 210
292 289 288 289 291 293 291 288 286 284 281 280 278 260 254 257 268 282 298 307 314 322 326 336 342 288 271 260 253 246 240 233 246 256 271 289 272 238 232 220 206 208 208
293 293 291 289 290 289 289 287 284 281 278 274 273 272 262 249 254 260 274 289 300 310 318 325 332 321 272 270 251 248 242 239 240 247 262 284 265 234 218 228 222 218 210
292 291 290 287 286 286 284 282 281 280 279 274 269 268 267 258 244 248 254 265 279 292 301 313 321 326 297 263 255 245 248 239 248 255 263 270 274 254 232 223 232 228 226
297 295 293 291 287 284 282 280 276 271 272 270 267 265 264 260 256 244 244 249 259 271 284 295 310 319 319 269 256 250 248 239 240 246 258 271 274 253 236 226 224 227 230
309 305 302 298 293 289 284 279 272 269 263 260 258 259 259 257 257 253 240 239 245 251 260 273 289 306 313 303 256 244 244 240 243 247 254 265 264 258 238 227 224 223 231
318 314 309 306 303 300 294 289 284 271 266 258 256 253 248 251 257 254 246 237 239 243 244 253 268 286 301 305 309 251 243 240 247 246 252 260 262 253 240 229 225 222 225
332 325 318 314 310 306 302 298 293 288 281 266 254 250 244 238 240 246 252 237 237 237 235 238 250 266 282 291 293 304 252 239 230 241 245 249 257 255 249 238 226 224 221
346 340 330 322 318 314 309 303 298 293 288 281 271 257 246 239 232 228 229 238 241 239 234 232 235 247 262 276 278 274 280 266 240 234 238 245 247 250 249 241 226 223 220
357 353 342 330 323 318 314 310 306 301 295 288 280 270 262 247 235 225 225 228 239 242 233 230 228 234 244 255 265 268 265 267 262 240 234 237 241 243 244 243 232 223 219
2 358 355 347 334 323 316 312 307 302 299 296 288 278 266 259 246 234 225 223 227 232 235 231 227 229 232 239 247 257 261 260 263 257 240 236 235 237 238 235 231 218 216
1 359 357 354 350 339 324 312 307 303 299 297 295 287 274 254 242 236 230 226 230 229 230 229 225 225 224 230 239 249 258 256 255 258 245 240 233 231 233 231 228 218 212
353 355 357 358 355 349 340 328 313 303 300 297 295 292 281 266 254 244 240 234 231 233 232 235 232 224 222 226 231 242 252 254 252 251 257 240 238 231 230 229 224 218 210
344 347 350 352 355 354 349 341 327 313 300 294 291 288 283 277 265 253 244 240 239 236 232 228 229 227 223 225 229 236 247 251 250 246 245 242 244 234 229 229 224 219 211
331 336 342 345 349 351 351 347 342 332 314 299 287 284 283 277 270 260 251 242 240 239 234 229 227 226 224 225 227 231 239 246 243 242 235 238 241 236 229 228 223 217 208
318 323 329 337 342 346 348 349 346 342 332 318 300 282 274 276 273 262 252 243 237 236 233 228 226 224 223 223 224 226 231 238 235 235 229 232 239 234 226 224 220 215 207